星链-37754(STARLINK-37754)

导读

STARLINK-37754(NORAD编号69201)是美国SpaceX公司星链(Starlink)星座的成员卫星,属于低轨互联网通信卫星。它运行在近地轨道,是星链全球宽带互联网组网计划的一部分,旨在为全球用户提供覆盖广泛、低延迟的卫星互联网服务。作为SpaceX批量部署的星链卫星之一,它延续了星链星座低成本、量产化的设计特点,服务于 maritime、航空以及偏远地区网络覆盖需求,目前正常在轨运行,支撑星链星座的全球网络覆盖能力。

Basic Information
目录编号:
69201
目录名称:
STARLINK-37754
国际标识:
2026-114V
轨道中心:
EARTH
卫星名称:
星链-37754
卫星全名:
星链-37754(STARLINK-37754)
卫星状态:
在轨 (已飞行109 天)
发射日期:
2026-05-25 UTC
国别 :
美国 (US)
星等 :
--
This satellite is enrolled in the Space Conjunction Data Service (SCDS) and the current flight risk assessment level is: No High Risk
Orbit Information
数据来源 国际轨道数据
星历时间: 2026-09-11T11:50:18+0800
16小时前
查看轨道信息
半长轴: 6840.806km
偏心率: 0.0001078
轨道倾角: 53.156°
近地点辐角 89.810°
升交点赤经 157.290°
平近点角 270.303°
近地点: 461.931km
远地点: 463.407km
周期: 93.847分钟
每日圈数: 15.344117
Detailed Information
固有亮度:
5
最大亮度:
2.5
卫星平台:
Starlink V1.0
覆盖范围:
全球
运营商:
太空探索技术公司
运营商所在国:
美国
制造商(研发单位):
太空探索技术公司
制造商所在国:
美国
使用方式:
暂无
Satellite Introduction
Starlink 计划是 SpaceX 推出的全球卫星互联网项目,通过发射低轨道卫星,为全球尤其是偏远地区提供高速、低延迟的互联网服务。自 2019 年起,Starlink 已部署数千颗卫星,旨在缩小全球数字鸿沟,推动互联网普及。该项目还为军事、航空等行业提供通信支持,带来广泛经济效益。
2D Orbit Map
3D Orbit Map
Orbit Altitude Analysis Chart
Orbit Inclination Analysis Chart
Orbit Comprehensive Analysis Chart
View Comprehensive Chart
Conjunction Data List
Event ID Objects TCA Miss Dist (km) Collision Risk Probability Collision Risk Index (CRI) Action
CDM_260913-232005-234406-920121
2026-09-13T
23:20:01+0000
0.587 km
远距离
9.169566E-5 中风险 0.74
CDM_260913-100205-234406-920121
2026-09-13T
10:02:47+0000
0.736 km
远距离
4.716833E-5 中风险 0.68
CDM_260913-045804-869606-920123
2026-09-13T
04:58:02+0000
1.058 km
极远距离
1.89779E-5 中风险 0.61
CDM_260906-031502-822006-920122
TANSUO 1 (28220)
2026-09-06T
03:15:22+0000
1.988 km
极远距离
2.852751E-6 低风险 0.44
CDM_260913-113605-234406-920122
2026-09-13T
11:36:34+0000
1.718 km
极远距离
2.850998E-6 低风险 0.44
CDM_260914-005305-234406-920121
2026-09-14T
00:53:48+0000
2.047 km
极远距离
1.797931E-6 低风险 0.4
CDM_260913-140106-489106-920121
OBJECT R (64891)
2026-09-13T
14:01:03+0000
2.764 km
极远距离
1.226442E-6 低风险 0.37
CDM_260913-082805-234406-920121
2026-09-13T
08:28:59+0000
2.763 km
极远距离
1.024707E-6 低风险 0.35
CDM_260914-045405-897606-920121
2026-09-14T
04:54:44+0000
2.654 km
极远距离
3.176263E-7 极低风险 0.25
Miss Distance Evolution Trend with All Objects
Collision Probability Evolution Trend with All Objects